Location: Corcelles
(46.1547°N, 4.7234°E)
Time: 01:40:55
(UTC+00:00)

IRS-1C - Visible Passes

Search period start: 24 October 2020 00:00
Search period end: 03 November 2020 00:00
Orbit: 815 x 817 km, 98.8° (Epoch: 23 October)

Date Brightness Start Highest point End Pass type
(mag) Time Alt. Az. Time Alt. Az. Time Alt. Az.
24 Oct 6.4 02:27:07 10° NNE 02:28:24 18° NNE 02:28:24 18° NNE visible
24 Oct 6.1 04:08:25 10° NNW 04:09:40 14° NNW 04:09:40 14° NNW visible
25 Oct 6.7 02:05:23 10° NNE 02:06:10 14° NNE 02:06:10 14° NNE visible
25 Oct 6.0 03:45:59 10° N 03:47:26 16° NNW 03:47:26 16° NNW visible
26 Oct 7.0 01:43:49 10° NNE 01:43:56 11° NNE 01:43:56 11° NNE visible
26 Oct 6.1 03:23:47 10° N 03:25:12 18° N 03:25:12 18° N visible
27 Oct 6.2 03:01:43 10° N 03:02:59 17° N 03:02:59 17° N visible
28 Oct 6.5 02:39:47 10° NNE 02:40:45 16° NNE 02:40:45 16° NNE visible
28 Oct 6.3 04:21:36 10° NNW 04:22:01 11° NNW 04:22:01 11° NNW visible
29 Oct 6.8 02:17:58 10° NNE 02:18:31 13° NNE 02:18:31 13° NNE visible
29 Oct 6.2 03:58:57 10° NNW 03:59:47 13° NNW 03:59:47 13° NNW visible
30 Oct 6.2 03:36:38 10° N 03:37:33 14° N 03:37:33 14° N visible
31 Oct 6.4 03:14:29 10° N 03:15:19 14° N 03:15:19 14° N visible
01 Nov 6.6 02:52:29 10° N 02:53:06 13° N 02:53:06 13° N visible
02 Nov 6.8 02:30:36 10° NNE 02:30:53 11° NNE 02:30:53 11° NNE visible
02 Nov 6.4 04:12:00 10° NNW 04:12:09 10° NNW 04:12:09 10° NNW visible
